Location: Aleksandria
(48.6657°N, 33.1137°E)
Time: 23:51:19
(UTC+02:00)

BlueWalker 3 - Pass Details

Date: 29 November 2023
Orbit: 485 x 499 km, 53.2° (Epoch: 03 March)

Event Time Altitude Azimuth Distance (km) Brightness Sun altitude
Exits shadow 04:02:56 19° 65° (ENE) 1,257 4.5 -31.1°
Drops below altitude 10° 04:04:10 10° 74° (ENE) 1,700 5.5 -30.9°
Sets 04:06:26 0° 82° (E) 2,579 6.7 -30.5°
